WJA264 CYHZ-CYYT

Flight info

Callsign WJA264
Flight time 1h 15m
Altitude 39000
Route IGTAS DCT NOTOP DCT SILRO DCT TIGOR TIGOR5
Aircraft B737/M-SDE2E3FGHIRWXY/LB1

Departure

Time 2026-04-22 02:57
Airport Halifax / Stanfield International Airport (CYHZ)

Arrival

Time 2026-04-22 04:13
Airport St. John's International Airport (CYYT)
Time Latitude Longitude Altitude Speed Heading
2026-04-22 02:17 44.88642 -63.51371 451 ft 0 kts 260°
2026-04-22 02:45 44.88642 -63.51368 451 ft 2 kts 260°
2026-04-22 02:45 44.88646 -63.51340 451 ft 3 kts 260°
2026-04-22 02:46 44.88649 -63.51315 449 ft 3 kts 260°
2026-04-22 02:46 44.88652 -63.51288 447 ft 1 kts 260°
2026-04-22 02:46 44.88656 -63.51262 448 ft 1 kts 260°
2026-04-22 02:46 44.88656 -63.51261 451 ft 0 kts 260°
2026-04-22 02:50 44.88656 -63.51262 451 ft 1 kts 260°
2026-04-22 02:50 44.88646 -63.51269 450 ft 2 kts 185°
2026-04-22 02:50 44.88621 -63.51250 450 ft 6 kts 152°
2026-04-22 02:50 44.88562 -63.51229 451 ft 11 kts 171°
2026-04-22 02:51 44.88472 -63.51207 450 ft 15 kts 171°
2026-04-22 02:51 44.88369 -63.51262 449 ft 17 kts 214°
2026-04-22 02:51 44.88272 -63.51370 450 ft 18 kts 214°
2026-04-22 02:51 44.88163 -63.51477 451 ft 20 kts 215°
2026-04-22 02:52 44.88050 -63.51590 451 ft 20 kts 215°
2026-04-22 02:52 44.87937 -63.51701 450 ft 20 kts 214°
2026-04-22 02:52 44.87825 -63.51811 451 ft 20 kts 215°
2026-04-22 02:52 44.87708 -63.51927 449 ft 21 kts 215°
2026-04-22 02:53 44.87584 -63.52051 451 ft 22 kts 215°
2026-04-22 02:53 44.87454 -63.52180 451 ft 23 kts 215°
2026-04-22 02:53 44.87318 -63.52314 450 ft 24 kts 214°
2026-04-22 02:53 44.87186 -63.52443 451 ft 23 kts 214°
2026-04-22 02:54 44.87058 -63.52567 451 ft 22 kts 214°
2026-04-22 02:54 44.86936 -63.52690 451 ft 21 kts 215°
2026-04-22 02:54 44.86824 -63.52823 451 ft 21 kts 229°
2026-04-22 02:54 44.86746 -63.52951 450 ft 10 kts 224°
2026-04-22 02:55 44.86687 -63.52941 451 ft 10 kts 133°
2026-04-22 02:55 44.86648 -63.52868 450 ft 8 kts 124°
2026-04-22 02:55 44.86639 -63.52849 449 ft 0 kts 124°
2026-04-22 02:55 44.86639 -63.52847 450 ft 1 kts 124°
2026-04-22 02:56 44.86624 -63.52818 449 ft 7 kts 124°
2026-04-22 02:56 44.86587 -63.52732 448 ft 12 kts 104°
2026-04-22 02:56 44.86625 -63.52665 447 ft 9 kts 35°
2026-04-22 02:56 44.86799 -63.52494 448 ft 66 kts 35°
2026-04-22 02:57 44.87384 -63.51916 448 ft 136 kts 35°
2026-04-22 02:57 44.88263 -63.51058 790 ft 161 kts 37°
2026-04-22 02:57 44.89172 -63.50121 1686 ft 163 kts 39°
2026-04-22 02:57 44.90078 -63.49132 2569 ft 170 kts 37°
2026-04-22 02:58 44.91109 -63.48045 2959 ft 201 kts 36°
2026-04-22 02:58 44.92247 -63.46706 3328 ft 225 kts 53°
2026-04-22 02:58 44.92938 -63.44650 3880 ft 244 kts 66°
2026-04-22 02:58 44.93590 -63.42350 4516 ft 259 kts 66°
2026-04-22 02:59 44.94270 -63.39953 5519 ft 264 kts 65°
2026-04-22 02:59 44.94957 -63.37553 6714 ft 264 kts 65°
2026-04-22 02:59 44.95657 -63.35142 7728 ft 268 kts 65°
2026-04-22 02:59 44.96376 -63.32691 8681 ft 273 kts 65°
2026-04-22 03:00 44.97110 -63.30202 9666 ft 277 kts 66°
2026-04-22 03:00 44.97863 -63.27656 10499 ft 287 kts 65°
2026-04-22 03:00 44.98673 -63.24934 10760 ft 315 kts 66°
2026-04-22 03:00 44.99540 -63.22017 11354 ft 328 kts 66°
2026-04-22 03:01 45.00431 -63.19020 12189 ft 334 kts 66°
2026-04-22 03:01 45.01337 -63.15968 13061 ft 339 kts 66°
2026-04-22 03:01 45.02259 -63.12864 13891 ft 346 kts 66°
2026-04-22 03:01 45.03192 -63.09716 14769 ft 350 kts 67°
2026-04-22 03:02 45.04142 -63.06509 15542 ft 357 kts 67°
2026-04-22 03:02 45.05103 -63.03260 16397 ft 361 kts 67°
2026-04-22 03:02 45.06083 -62.99948 17216 ft 367 kts 68°
2026-04-22 03:02 45.07076 -62.96584 18006 ft 374 kts 68°
2026-04-22 03:03 45.08161 -62.93210 18783 ft 380 kts 63°
2026-04-22 03:03 45.09434 -62.89960 19496 ft 385 kts 62°
2026-04-22 03:03 45.10800 -62.86667 20209 ft 390 kts 63°
2026-04-22 03:03 45.12200 -62.83335 20843 ft 398 kts 65°
2026-04-22 03:04 45.13620 -62.79933 21499 ft 404 kts 66°
2026-04-22 03:04 45.15070 -62.76429 22213 ft 409 kts 68°
2026-04-22 03:04 45.16488 -62.72974 22896 ft 414 kts 69°
2026-04-22 03:04 45.17935 -62.69425 23559 ft 419 kts 70°
2026-04-22 03:05 45.19399 -62.65820 24163 ft 424 kts 70°
2026-04-22 03:05 45.20875 -62.62179 24728 ft 428 kts 69°
2026-04-22 03:05 45.22359 -62.58512 25308 ft 431 kts 69°
2026-04-22 03:05 45.23857 -62.54806 25850 ft 435 kts 68°
2026-04-22 03:06 45.25371 -62.51055 26322 ft 441 kts 68°
2026-04-22 03:06 45.26900 -62.47258 26809 ft 445 kts 68°
2026-04-22 03:06 45.28443 -62.43427 27344 ft 448 kts 68°
2026-04-22 03:06 45.29997 -62.39563 27881 ft 452 kts 67°
2026-04-22 03:07 45.31558 -62.35674 28374 ft 455 kts 67°
2026-04-22 03:07 45.33131 -62.31752 28856 ft 459 kts 66°
2026-04-22 03:07 45.34716 -62.27790 29331 ft 463 kts 66°
2026-04-22 03:07 45.36308 -62.23808 29787 ft 466 kts 66°
2026-04-22 03:08 45.37917 -62.19775 30168 ft 470 kts 66°
2026-04-22 03:08 45.39535 -62.15713 30515 ft 475 kts 66°
2026-04-22 03:08 45.41169 -62.11606 30858 ft 478 kts 66°
2026-04-22 03:08 45.42812 -62.07475 31233 ft 479 kts 66°
2026-04-22 03:09 45.44455 -62.03338 31584 ft 481 kts 66°
2026-04-22 03:09 45.46164 -61.99215 31906 ft 486 kts 63°
2026-04-22 03:09 45.48028 -61.95164 32208 ft 490 kts 61°
2026-04-22 03:09 45.49959 -61.91148 32579 ft 491 kts 60°
2026-04-22 03:10 45.51912 -61.87152 32998 ft 490 kts 60°
2026-04-22 03:10 45.53855 -61.83173 33420 ft 489 kts 60°
2026-04-22 03:10 45.55766 -61.79232 33831 ft 488 kts 60°
2026-04-22 03:10 45.57686 -61.75236 34221 ft 487 kts 61°
2026-04-22 03:11 45.59618 -61.71188 34546 ft 487 kts 61°
2026-04-22 03:11 45.61489 -61.67244 34836 ft 487 kts 61°
2026-04-22 03:11 45.63384 -61.63238 35106 ft 487 kts 61°
2026-04-22 03:11 45.65283 -61.59215 35358 ft 487 kts 61°
2026-04-22 03:12 45.67177 -61.55196 35575 ft 489 kts 61°
2026-04-22 03:12 45.70978 -61.47116 36156 ft 489 kts 61°
2026-04-22 03:12 45.72872 -61.43086 36467 ft 488 kts 61°
2026-04-22 03:13 45.74763 -61.39055 36751 ft 488 kts 61°
2026-04-22 03:13 45.76651 -61.35024 36983 ft 488 kts 61°
2026-04-22 03:13 45.77904 -61.32346 37090 ft 489 kts 61°
2026-04-22 03:13 45.80442 -61.26914 37330 ft 491 kts 62°
2026-04-22 03:14 45.81700 -61.24218 37486 ft 491 kts 62°
2026-04-22 03:14 45.83599 -61.20144 37781 ft 490 kts 61°
2026-04-22 03:14 45.85488 -61.16087 38097 ft 489 kts 61°
2026-04-22 03:14 45.87371 -61.12035 38369 ft 488 kts 61°
2026-04-22 03:15 45.89254 -61.07979 38606 ft 488 kts 61°
2026-04-22 03:15 45.91131 -61.03927 38863 ft 487 kts 61°
2026-04-22 03:15 45.93006 -60.99876 39084 ft 487 kts 61°
2026-04-22 03:15 45.94878 -60.95824 39261 ft 487 kts 61°
2026-04-22 03:16 45.98633 -60.87673 39287 ft 490 kts 61°
2026-04-22 03:16 46.02379 -60.79528 39292 ft 486 kts 61°
2026-04-22 03:17 46.06095 -60.71424 39286 ft 484 kts 61°
2026-04-22 03:17 46.09784 -60.63356 39282 ft 481 kts 62°
2026-04-22 03:18 46.13448 -60.55315 39301 ft 479 kts 62°
2026-04-22 03:18 46.17102 -60.47269 39295 ft 480 kts 62°
2026-04-22 03:19 46.20758 -60.39198 39291 ft 481 kts 62°
2026-04-22 03:19 46.24421 -60.31089 39290 ft 483 kts 62°
2026-04-22 03:20 46.28103 -60.22915 39284 ft 486 kts 62°
2026-04-22 03:20 46.31792 -60.14701 39284 ft 488 kts 62°
2026-04-22 03:21 46.35485 -60.06457 39268 ft 489 kts 63°
2026-04-22 03:21 46.39188 -59.98165 39293 ft 490 kts 63°
2026-04-22 03:22 46.42884 -59.89865 39289 ft 491 kts 63°
2026-04-22 03:22 46.46581 -59.81537 39284 ft 491 kts 63°
2026-04-22 03:23 46.50267 -59.73209 39277 ft 490 kts 63°
2026-04-22 03:23 46.53918 -59.64935 39277 ft 489 kts 63°
2026-04-22 03:24 46.57582 -59.56607 39280 ft 489 kts 63°
2026-04-22 03:24 46.61231 -59.48285 39276 ft 488 kts 63°
2026-04-22 03:25 46.64868 -59.39968 39262 ft 486 kts 63°
2026-04-22 03:25 46.68492 -59.31656 39271 ft 486 kts 63°
2026-04-22 03:26 46.72106 -59.23340 39274 ft 486 kts 63°
2026-04-22 03:26 46.75716 -59.15008 39272 ft 486 kts 63°
2026-04-22 03:27 46.79325 -59.06655 39269 ft 487 kts 63°
2026-04-22 03:27 46.82932 -58.98281 39264 ft 487 kts 63°
2026-04-22 03:28 46.86535 -58.89891 39264 ft 488 kts 63°
2026-04-22 03:28 46.90134 -58.81484 39264 ft 488 kts 64°
2026-04-22 03:29 46.93724 -58.73072 39259 ft 488 kts 64°
2026-04-22 03:29 46.97310 -58.64646 39254 ft 488 kts 64°
2026-04-22 03:30 47.00196 -58.55830 39258 ft 474 kts 79°
2026-04-22 03:30 47.01453 -58.46504 39251 ft 464 kts 88°
2026-04-22 03:31 47.02418 -58.37211 39249 ft 464 kts 88°
2026-04-22 03:31 47.03406 -58.27858 39239 ft 465 kts 88°
2026-04-22 03:32 47.04422 -58.18495 39235 ft 465 kts 88°
2026-04-22 03:32 47.05444 -58.09129 39233 ft 465 kts 88°
2026-04-22 03:33 47.06460 -57.99759 39228 ft 465 kts 88°
2026-04-22 03:33 47.07469 -57.90383 39218 ft 465 kts 89°
2026-04-22 03:34 47.08467 -57.81013 39218 ft 465 kts 89°
2026-04-22 03:34 47.09459 -57.71621 39202 ft 466 kts 89°
2026-04-22 03:35 47.10443 -57.62225 39211 ft 466 kts 89°
2026-04-22 03:35 47.11423 -57.52797 39209 ft 467 kts 89°
2026-04-22 03:36 47.12396 -57.43353 39203 ft 468 kts 89°
2026-04-22 03:36 47.13364 -57.33887 39198 ft 469 kts 89°
2026-04-22 03:37 47.14327 -57.24384 39194 ft 471 kts 89°
2026-04-22 03:37 47.15285 -57.14847 39188 ft 472 kts 89°
2026-04-22 03:38 47.16237 -57.05292 39187 ft 473 kts 89°
2026-04-22 03:38 47.17177 -56.95774 39185 ft 474 kts 89°
2026-04-22 03:39 47.18118 -56.86172 39173 ft 475 kts 89°
2026-04-22 03:39 47.19049 -56.76588 39145 ft 473 kts 89°
2026-04-22 03:40 47.19969 -56.67032 39147 ft 470 kts 89°
2026-04-22 03:40 47.20875 -56.57536 39133 ft 467 kts 89°
2026-04-22 03:41 47.21766 -56.48108 39129 ft 464 kts 89°
2026-04-22 03:41 47.22642 -56.38738 39110 ft 461 kts 89°
2026-04-22 03:42 47.23507 -56.29415 39117 ft 459 kts 89°
2026-04-22 03:42 47.24358 -56.20151 39111 ft 456 kts 89°
2026-04-22 03:43 47.25199 -56.10916 39104 ft 454 kts 89°
2026-04-22 03:43 47.26029 -56.01708 39096 ft 453 kts 89°
2026-04-22 03:44 47.26850 -55.92514 39091 ft 453 kts 89°
2026-04-22 03:44 47.27665 -55.83310 39091 ft 453 kts 89°
2026-04-22 03:45 47.28472 -55.74110 39095 ft 453 kts 90°
2026-04-22 03:45 47.29271 -55.64916 39091 ft 453 kts 90°
2026-04-22 03:46 47.30064 -55.55704 39091 ft 454 kts 90°
2026-04-22 03:46 47.30854 -55.46433 38905 ft 460 kts 90°
2026-04-22 03:47 47.31244 -55.41779 38297 ft 465 kts 91°
2026-04-22 03:47 47.31642 -55.37069 37688 ft 462 kts 91°
2026-04-22 03:47 47.32038 -55.32380 37038 ft 461 kts 91°
2026-04-22 03:47 47.32436 -55.27631 36374 ft 460 kts 92°
2026-04-22 03:48 47.32821 -55.23011 35714 ft 460 kts 92°
2026-04-22 03:48 47.33207 -55.18320 34958 ft 463 kts 93°
2026-04-22 03:48 47.33592 -55.13603 34257 ft 463 kts 93°
2026-04-22 03:48 47.33977 -55.08916 33670 ft 459 kts 93°
2026-04-22 03:49 47.34359 -55.04259 33107 ft 455 kts 93°
2026-04-22 03:49 47.34735 -54.99646 32580 ft 451 kts 93°
2026-04-22 03:49 47.35105 -54.95078 32040 ft 446 kts 93°
2026-04-22 03:49 47.35469 -54.90552 31534 ft 442 kts 94°
2026-04-22 03:50 47.35825 -54.86081 30991 ft 437 kts 93°
2026-04-22 03:50 47.36177 -54.81650 30499 ft 433 kts 93°
2026-04-22 03:50 47.36523 -54.77263 29972 ft 428 kts 93°
2026-04-22 03:50 47.36862 -54.72927 29396 ft 424 kts 93°
2026-04-22 03:51 47.37198 -54.68635 28860 ft 418 kts 93°
2026-04-22 03:51 47.37527 -54.64398 28320 ft 413 kts 93°
2026-04-22 03:51 47.37850 -54.60211 27795 ft 409 kts 93°
2026-04-22 03:51 47.38168 -54.56079 27231 ft 404 kts 93°
2026-04-22 03:52 47.38481 -54.51969 26728 ft 401 kts 93°
2026-04-22 03:52 47.38788 -54.47930 26228 ft 397 kts 93°
2026-04-22 03:52 47.39095 -54.43875 25721 ft 394 kts 92°
2026-04-22 03:52 47.39396 -54.39869 25220 ft 391 kts 92°
2026-04-22 03:53 47.39694 -54.35891 24702 ft 389 kts 92°
2026-04-22 03:53 47.39989 -54.31937 24184 ft 387 kts 92°
2026-04-22 03:53 47.40282 -54.27992 23649 ft 385 kts 92°
2026-04-22 03:53 47.40571 -54.24076 23073 ft 383 kts 92°
2026-04-22 03:54 47.40860 -54.20183 22528 ft 379 kts 92°
2026-04-22 03:54 47.41144 -54.16329 22005 ft 376 kts 92°
2026-04-22 03:54 47.41423 -54.12515 21503 ft 372 kts 92°
2026-04-22 03:54 47.41727 -54.08727 20990 ft 371 kts 90°
2026-04-22 03:55 47.42107 -54.05018 20491 ft 370 kts 89°
2026-04-22 03:55 47.42523 -54.01275 19981 ft 368 kts 89°
2026-04-22 03:55 47.42941 -53.97559 19478 ft 366 kts 89°
2026-04-22 03:55 47.43352 -53.93855 18969 ft 365 kts 89°
2026-04-22 03:56 47.43755 -53.90165 18454 ft 363 kts 89°
2026-04-22 03:56 47.44150 -53.86488 17895 ft 362 kts 89°
2026-04-22 03:56 47.44539 -53.82826 17366 ft 359 kts 90°
2026-04-22 03:56 47.44923 -53.79193 16815 ft 357 kts 90°
2026-04-22 03:57 47.45302 -53.75577 16307 ft 354 kts 90°
2026-04-22 03:57 47.45676 -53.71996 15799 ft 351 kts 90°
2026-04-22 03:57 47.46046 -53.68447 15306 ft 348 kts 90°
2026-04-22 03:57 47.46411 -53.64923 14808 ft 346 kts 90°
2026-04-22 03:58 47.46772 -53.61422 14305 ft 343 kts 90°
2026-04-22 03:58 47.47130 -53.57944 13777 ft 341 kts 90°
2026-04-22 03:58 47.47483 -53.54496 13246 ft 338 kts 90°
2026-04-22 03:58 47.47833 -53.51079 12716 ft 335 kts 90°
2026-04-22 03:59 47.48179 -53.47690 12224 ft 331 kts 90°
2026-04-22 03:59 47.48520 -53.44337 11732 ft 328 kts 90°
2026-04-22 03:59 47.48857 -53.41014 11244 ft 326 kts 90°
2026-04-22 03:59 47.49189 -53.37721 10732 ft 323 kts 90°
2026-04-22 04:00 47.49519 -53.34453 10402 ft 316 kts 90°
2026-04-22 04:00 47.49733 -53.32353 10264 ft 309 kts 90°
2026-04-22 04:00 47.50045 -53.29277 10118 ft 297 kts 90°
2026-04-22 04:00 47.50344 -53.26304 9816 ft 291 kts 90°
2026-04-22 04:01 47.50634 -53.23357 9428 ft 288 kts 90°
2026-04-22 04:01 47.50921 -53.20442 9067 ft 285 kts 89°
2026-04-22 04:01 47.51206 -53.17551 8675 ft 283 kts 89°
2026-04-22 04:01 47.51487 -53.14687 8310 ft 280 kts 88°
2026-04-22 04:02 47.51767 -53.11850 7951 ft 277 kts 87°
2026-04-22 04:02 47.52043 -53.09043 7582 ft 275 kts 87°
2026-04-22 04:02 47.52317 -53.06256 7220 ft 273 kts 86°
2026-04-22 04:02 47.52587 -53.03490 6865 ft 272 kts 85°
2026-04-22 04:03 47.52854 -53.00727 6509 ft 270 kts 86°
2026-04-22 04:03 47.53025 -52.97975 6130 ft 268 kts 89°
2026-04-22 04:03 47.53149 -52.95234 5755 ft 266 kts 88°
2026-04-22 04:03 47.53273 -52.92517 5391 ft 264 kts 87°
2026-04-22 04:04 47.53399 -52.89830 5126 ft 258 kts 87°
2026-04-22 04:04 47.53524 -52.87245 5004 ft 247 kts 86°
2026-04-22 04:04 47.53645 -52.84751 4847 ft 239 kts 86°
2026-04-22 04:04 47.53751 -52.82334 4704 ft 232 kts 90°
2026-04-22 04:05 47.53339 -52.80048 4554 ft 233 kts 120°
2026-04-22 04:05 47.52327 -52.78228 4463 ft 229 kts 136°
2026-04-22 04:05 47.51114 -52.76711 4338 ft 228 kts 136°
2026-04-22 04:05 47.49896 -52.75183 4208 ft 231 kts 136°
2026-04-22 04:06 47.48682 -52.73646 4083 ft 234 kts 136°
2026-04-22 04:06 47.47442 -52.72064 3967 ft 237 kts 135°
2026-04-22 04:06 47.46187 -52.70467 3836 ft 238 kts 136°
2026-04-22 04:06 47.44986 -52.68844 3679 ft 229 kts 124°
2026-04-22 04:07 47.44410 -52.66775 3549 ft 213 kts 91°
2026-04-22 04:07 47.44559 -52.64685 3439 ft 200 kts 70°
2026-04-22 04:07 47.45201 -52.62917 3340 ft 195 kts 50°
2026-04-22 04:07 47.46075 -52.61413 3260 ft 189 kts 49°
2026-04-22 04:08 47.46906 -52.59997 3154 ft 176 kts 49°
2026-04-22 04:08 47.47791 -52.58852 3022 ft 164 kts 24°
2026-04-22 04:08 47.48856 -52.58708 2983 ft 156 kts 343°
2026-04-22 04:08 47.49830 -52.59449 3008 ft 160 kts 337°
2026-04-22 04:09 47.50765 -52.60336 3008 ft 159 kts 333°
2026-04-22 04:09 47.51664 -52.61293 2894 ft 161 kts 329°
2026-04-22 04:09 47.52533 -52.62330 2688 ft 159 kts 328°
2026-04-22 04:09 47.53368 -52.63373 2464 ft 154 kts 327°
2026-04-22 04:10 47.54166 -52.64387 2251 ft 148 kts 328°
2026-04-22 04:10 47.54941 -52.65378 2072 ft 147 kts 327°
2026-04-22 04:10 47.55707 -52.66360 1889 ft 144 kts 327°
2026-04-22 04:10 47.56440 -52.67302 1673 ft 136 kts 327°
2026-04-22 04:11 47.57138 -52.68201 1491 ft 133 kts 327°
2026-04-22 04:11 47.57851 -52.69108 1340 ft 136 kts 326°
2026-04-22 04:11 47.58535 -52.69988 1137 ft 125 kts 325°
2026-04-22 04:11 47.59175 -52.70808 1014 ft 120 kts 325°
2026-04-22 04:12 47.59810 -52.71623 849 ft 123 kts 325°
2026-04-22 04:12 47.60449 -52.72444 689 ft 120 kts 325°
2026-04-22 04:12 47.61073 -52.73243 503 ft 120 kts 324°
2026-04-22 04:12 47.61683 -52.74026 430 ft 109 kts 322°
2026-04-22 04:13 47.62143 -52.74615 451 ft 66 kts 319°
2026-04-22 04:13 47.62363 -52.74893 447 ft 25 kts 319°
2026-04-22 04:13 47.62457 -52.74993 444 ft 8 kts 339°
2026-04-22 04:13 47.62466 -52.75029 435 ft 4 kts 218°
2026-04-22 04:14 47.62446 -52.75008 435 ft 4 kts 128°
2026-04-22 04:14 47.62428 -52.74977 444 ft 5 kts 135°
2026-04-22 04:14 47.62392 -52.74930 441 ft 8 kts 138°
2026-04-22 04:14 47.62347 -52.74869 448 ft 9 kts 138°
2026-04-22 04:15 47.62299 -52.74807 451 ft 10 kts 139°
2026-04-22 04:15 47.62235 -52.74727 451 ft 14 kts 140°
2026-04-22 04:15 47.62147 -52.74643 452 ft 16 kts 170°
2026-04-22 04:15 47.62066 -52.74705 455 ft 13 kts 229°
2026-04-22 04:16 47.62000 -52.74747 458 ft 11 kts 156°
2026-04-22 04:16 47.61881 -52.74600 459 ft 14 kts 139°
2026-04-22 04:16 47.61792 -52.74490 454 ft 21 kts 142°
2026-04-22 04:17 47.61667 -52.74327 444 ft 24 kts 138°
2026-04-22 04:17 47.61588 -52.74251 439 ft 10 kts 184°
2026-04-22 04:17 47.61537 -52.74316 446 ft 10 kts 229°
2026-04-22 04:17 47.61482 -52.74346 448 ft 7 kts 158°
2026-04-22 04:18 47.61450 -52.74295 448 ft 7 kts 153°
2026-04-22 04:18 47.61408 -52.74311 448 ft 5 kts 204°
2026-04-22 04:18 47.61388 -52.74325 448 ft 1 kts 203°
2026-04-22 04:18 47.61387 -52.74325 448 ft 0 kts 203°